Location: Newark
(45.9167°N, 5.5000°E)
Time: 19:31:22
(UTC+00:00)

N. Korean satellite - Pass Details

Date: 26 January 2020
Orbit: 456 x 505 km, 97.2° (Epoch: 19 February)

Event Time Altitude Azimuth Distance (km) Brightness Sun altitude
Rises 17:28:27 0° 202° (SSW) 2,462 10.8 -9.6°
Reaches altitude 10° 17:30:59 10° 223° (SW) 1,594 10.2 -10.0°
Maximum altitude 17:33:21 18° 267° (W) 1,208 9.8 -10.4°
Drops below altitude 10° 17:35:45 10° 312° (NW) 1,609 9.7 -10.8°
Sets 17:38:19 0° 332° (NNW) 2,494 10.3 -11.3°
